WA1UHF Weather Reports


Display with metric or nautical units.
time (UTC)temp
F
wind
direction
speed
MPH
gust
MPH
rain 1hr
in
rain 24hr
in
rain mn
in
humidity
%
barometer
mb
20260505230058 64 188 9.0 24.0 0.00 0.00 0.00 64 1005.4
20260505224541 64 283 2.0 10.0 0.00 0.00 0.00 65 1004.7
20260505223040 65 190 3.0 14.0 0.00 0.00 0.00 63 1004.5
20260505221557 66 168 2.0 10.0 0.00 0.00 0.00 63 1004.2
20260505220057 66 199 3.0 12.0 0.00 0.00 0.00 63 1004.2
20260505214552 66 269 5.0 17.0 0.00 0.00 0.00 62 1003.7
20260505213041 67 200 6.0 23.0 0.00 0.00 0.00 62 1003.9
20260505211542 68 242 4.0 13.0 0.00 0.00 0.00 61 1003.8
20260505210051 68 167 3.0 22.0 0.00 0.00 0.00 60 1004.0
20260505204555 69 159 5.0 16.0 0.00 0.00 0.00 61 1004.0
20260505203119 70 192 4.0 15.0 0.00 0.00 0.00 59 1003.9
20260505201546 70 206 4.0 18.0 0.00 0.00 0.00 58 1004.0
20260505200048 70 183 4.0 14.0 0.00 0.00 0.00 60 1004.1
20260505194556 71 117 4.0 14.0 0.00 0.00 0.00 60 1004.3
20260505193047 71 319 3.0 19.0 0.00 0.00 0.00 59 1004.4
20260505191547 71 192 3.0 14.0 0.00 0.00 0.00 59 1004.7
20260505190053 71 159 5.0 17.0 0.00 0.00 0.00 61 1005.1
20260505184552 71 185 6.0 19.0 0.00 0.00 0.00 57 1005.1
20260505183051 73 224 5.0 15.0 0.00 0.00 0.00 55 1005.1
20260505181545 74 272 4.0 16.0 0.00 0.00 0.00 56 1005.2
20260505180046 73 264 5.0 20.0 0.00 0.00 0.00 53 1005.4
20260505174542 73 275 5.0 14.0 0.00 0.00 0.00 55 1005.5
20260505173040 72 207 5.0 15.0 0.00 0.00 0.00 55 1005.6
20260505171548 73 109 3.0 12.0 0.00 0.00 0.00 57 1006.2
20260505170046 71 142 4.0 15.0 0.00 0.00 0.00 57 1006.3
20260505164556 70 0 4.0 12.0 0.00 0.00 0.00 61 1006.5
20260505163045 68 220 3.0 10.0 0.00 0.00 0.00 61 1006.7
20260505161553 66 221 2.0 12.0 0.00 0.00 0.00 65 1007.0
20260505153055 67 275 5.0 13.0 0.00 0.00 0.00 60 1008.1
20260505151544 69 96 5.0 16.0 0.00 0.00 0.00 59 1007.8
20260505124549 63 200 3.0 8.0 0.00 0.00 0.00 65 1008.0
20260505123055 61 142 2.0 8.0 0.00 0.00 0.00 65 1008.0
20260505121546 61 161 3.0 11.0 0.00 0.00 0.00 66 1008.2
20260505120059 60 211 2.0 7.0 0.00 0.00 0.00 70 1008.4
20260505114545 57 178 2.0 6.0 0.00 0.00 0.00 73 1008.2
20260505113101 55 195 1.0 7.0 0.00 0.00 0.00 77 1008.1
20260505111549 53 103 1.0 4.0 0.00 0.00 0.00 81 1008.4
20260505101543 46 0 0.0 4.0 0.00 0.00 0.00 92 1008.3
20260505100042 45 0 0.0 1.0 0.00 0.00 0.00 94 1008.1
20260505094545 44 138 0.0 2.0 0.00 0.00 0.00 94 1008.1
20260505093051 44 257 0.0 2.0 0.00 0.00 0.00 93 1008.0
20260505091546 44 0 0.0 3.0 0.00 0.00 0.00 94 1008.0
20260505090045 43 0 0.0 0.0 0.00 0.00 0.00 94 1008.1
20260505084547 43 0 0.0 0.0 0.00 0.00 0.00 94 1008.2
20260505083053 43 0 0.0 0.0 0.00 0.00 0.00 94 1008.3
20260505081551 42 0 0.0 0.0 0.00 0.00 0.00 94 1008.3
20260505080047 43 0 0.0 0.0 0.00 0.00 0.00 93 1008.3
20260505074545 43 0 0.0 0.0 0.00 0.00 0.00 93 1008.1
20260505073044 43 0 0.0 0.0 0.00 0.00 0.00 93 1008.1
20260505071545 43 0 0.0 0.0 0.00 0.00 0.00 91 1008.2
20260505070046 43 0 0.0 0.0 0.00 0.00 0.00 91 1008.1
20260505064540 44 0 0.0 0.0 0.00 0.00 0.00 91 1008.1
20260505063045 44 0 0.0 1.0 0.00 0.00 0.00 91 1008.1
20260505061545 44 0 0.0 0.0 0.00 0.00 0.00 90 1008.2
20260505060046 44 0 0.0 1.0 0.00 0.00 0.00 90 1008.2
20260505054546 44 0 0.0 0.0 0.00 0.00 0.00 90 1008.2
20260505053110 44 0 0.0 1.0 0.00 0.00 0.00 91 1008.1
20260505051539 44 181 1.0 2.0 0.00 0.00 0.00 89 1007.9
20260505041544 47 0 0.0 0.0 0.00 0.00 0.00 86 1007.7
20260505040041 47 0 0.0 0.0 0.00 0.00 0.00 85 1007.6
20260505034601 48 0 0.0 0.0 0.00 0.00 0.00 83 1007.4
20260505033050 48 0 0.0 2.0 0.00 0.00 0.00 83 1007.4
20260505031542 49 0 0.0 2.0 0.00 0.00 0.00 81 1007.3
20260505030049 49 0 0.0 0.0 0.00 0.00 0.00 80 1007.5
20260505024539 50 0 0.0 1.0 0.00 0.00 0.00 78 1007.5
20260505023048 51 0 0.0 3.0 0.00 0.00 0.00 77 1007.6
20260505021542 51 202 0.0 4.0 0.00 0.00 0.00 76 1007.5
20260505020039 52 0 0.0 5.0 0.00 0.00 0.00 75 1007.2
20260505014547 52 0 0.0 4.0 0.00 0.00 0.00 75 1007.0
20260505013045 53 0 0.0 2.0 0.00 0.00 0.00 74 1007.0
20260505011607 54 0 0.0 2.0 0.00 0.00 0.00 73 1006.8
20260505010048 54 0 0.0 0.0 0.00 0.00 0.00 74 1006.7
20260505004549 54 0 0.0 3.0 0.00 0.00 0.00 72 1006.7
20260505003052 55 0 0.0 1.0 0.00 0.00 0.00 71 1006.4
20260505001547 56 0 0.0 2.0 0.00 0.00 0.00 69 1006.1
20260505000100 57 0 0.0 0.0 0.00 0.00 0.00 67 1005.9
20260504234543 58 0 0.0 2.0 0.00 0.00 0.00 67 1005.7
20260504233102 60 0 0.0 0.0 0.00 0.00 0.00 63 1005.6
20260504231542 61 0 0.0 0.0 0.00 0.00 0.00 57 1005.4